{"data":{"norad_id":57184,"epoch":"2026-05-25T04:30:00.394848Z","epoch_age_seconds":56059,"freshness":"FRESH","line1":"1 57184U 23091U   26145.18750457  .00004755  00000+0  23247-3 0  9996","line2":"2 57184  97.5087 203.6215 0011195 184.4474 175.6663 15.18658610160463","mean_motion":15.1865861,"eccentricity":0.0011195,"inclination_deg":97.5087,"raan_deg":203.6215,"arg_perigee_deg":184.4474,"mean_anomaly_deg":175.6663,"bstar":0.00023247,"rev_number":16046,"period_min":94.820520590865,"perigee_km":502.1824875316,"apogee_km":517.6047881297,"semimajor_km":6888.0306378307,"source":"CELESTRAK","updated_at":"2026-05-25T13:38:23.292008Z"}}